KINEIS-5B

Last updated on Sat Sep 05 2026 00:02:54 GMT+0000 (Coordinated Universal Time)

1 62085U 24219E 26247.77641355 .00000553 00000+0 82889-4 0 9999 2 62085 98.0153 51.1966 0002525 47.3702 312.7721 14.78471806 95760
UTC large
Height (km)
Speed (km/s)
/
Latitude / Longitude
Inclination (degrees)
Orbital Period (minutes)
Azimuth
Elevation
Range (km)
Doppler Factor

Next 0 passes for location: London (51.5072 / 0.1276)

No passes found over London.
KINEIS-5B